[[{"header":{"parameterUnit":"m.s-1","parameterCategory":1,"la1":30.2992,"la2":30.254,"lo1":-89.0895,"lo2":-89.0443,"dy":0.0025,"dx":0.0025,"nx":19,"ny":19,"refTime":"2026-04-22T03:00:00:Z","depth":0,"parameterNumber":2,"parameterNumberName":"U-component_of_WINDS"},"data":[0,0,0,-2.9102,-2.9105,-2.9259,-2.926,-2.9451,-2.9452,0,0,0,0,0,0,0,0,0,0,0,-2.9053,-2.9054,-2.9102,-2.9106,-2.9259,-2.926,-2.945,-2.9452,0,0,0,0,0,0,0,0,0,0,0,-2.9052,-2.9054,-2.9055,-2.9106,-2.9259,-2.926,-2.945,-2.9336,0,0,0,0,0,0,0,0,0,0,-2.9188,-2.9139,-2.9053,-2.9055,-2.9107,-2.9259,-2.926,-2.9331,-2.9343,-2.9379,0,-2.9409,0,-2.9434,-2.9465,-2.9465,0,0,0,-2.9109,-2.9128,-2.9173,-2.9055,-2.9108,-2.9258,-2.9191,-2.9338,-2.9352,-2.9395,-2.9412,-2.9419,-2.9437,-2.9466,-2.9467,-2.966,-2.9661,0,0,-2.91,-2.9079,-2.9163,-2.9182,-2.9157,-2.9186,-2.9195,-2.9347,-2.9363,-2.9412,-2.9423,-2.944,-2.9467,-2.9469,-2.966,-2.966,0,0,0,-2.9074,-2.9072,-2.9114,-2.9174,-2.9202,-2.919,-2.9201,-2.9356,-2.9371,-2.9426,-2.9442,-2.9468,-2.9471,-2.9659,-2.966,-2.9676,0,0,0,-2.9069,-2.9057,-2.911,-2.9098,-2.9199,-2.9281,-2.9207,-2.9361,-2.9379,-2.9441,-2.9468,-2.9472,-2.9658,-2.9659,-2.9673,-2.9686,0,0,0,-2.9044,-2.9054,-2.9075,-2.9097,-2.9162,-2.9279,-2.9303,-2.9365,-2.9389,-2.9466,-2.9473,-2.9657,-2.9659,-2.9671,-2.9683,-2.973,0,0,0,-2.9012,-2.9087,-2.9075,-2.9166,-2.916,-2.9288,-2.9302,-2.9398,-2.9466,-2.9469,-2.9658,-2.966,-2.9671,-2.9681,-2.9728,-2.9765,-2.9779,0,0,-2.9095,-2.9096,-2.9152,-2.9145,-2.9269,-2.9266,-2.9393,-2.9476,-2.9503,-2.9607,-2.9612,-2.9674,-2.9683,-2.973,-2.9865,-2.9876,0,0,0,-2.9171,-2.921,-2.9248,-2.9311,-2.9376,-2.9433,-2.9499,-2.953,-2.9619,-2.9552,-2.9705,-2.9711,-2.974,-2.9758,-2.9767,-2.9793,-2.9668,-2.9668,-2.9667,-2.9256,-2.9288,-2.9381,-2.9431,-2.9492,-2.956,-2.9613,-2.9666,-2.968,-2.9716,-2.9746,-2.9825,-2.9846,-2.9853,-2.9879,-2.977,-2.977,-2.977,-2.977,-2.938,-2.9441,-2.9458,-2.9554,-2.9587,-2.9669,-2.9738,-2.9745,-2.9827,-2.9804,-2.9831,-2.9802,-2.9863,-2.9888,-2.9771,-2.9771,-2.9771,-2.9771,-2.9771,-2.9439,-2.9473,-2.951,-2.9605,-2.9675,-2.9724,-2.9801,-2.9829,-2.9856,-2.9882,-2.9917,-2.9917,-2.992,-2.9897,-2.9897,-2.9898,-2.9898,-2.9898,-2.9898,-2.9485,-2.9525,-2.9587,-2.9663,-2.9707,-2.977,-2.9839,-2.9885,-2.9942,-2.9956,-2.9956,-2.9966,-2.9864,-2.9837,-2.9903,-2.9902,-2.9901,-2.9901,-2.9901,-2.9597,-2.9576,-2.9671,-2.9715,-2.9807,-2.9875,-2.991,-3.0,-3.0041,-3.0079,-3.0084,-3.0004,-3.0008,-3.0001,-2.9978,-3.0077,-3.0077,-3.0077,-3.0077,-2.9646,-2.9651,-2.9754,-2.9823,-2.9895,-2.9936,-3.0043,-3.0099,-3.0153,-3.0181,-3.0171,-3.0145,-3.0136,-3.0145,-3.0135,-3.0114,-3.0245,-3.0246,-3.0246,-2.9716,-2.973,-2.9814,-2.9866,-2.9941,-3.0004,-3.0105,-3.0186,-3.0243,-3.0253,-3.0203,-3.0196,-3.0154,-3.0138,-3.0145,-3.0129,-3.0092,0,0]},{"header":{"parameterUnit":"m.s-1","parameterCategory":1,"la1":30.2992,"la2":30.254,"lo1":-89.0895,"lo2":-89.0443,"dy":0.0025,"dx":0.0025,"nx":19,"ny":19,"refTime":"2026-04-22T03:00:00:Z","depth":0,"parameterNumber":3,"parameterNumberName":"V-component_of_WINDS"},"data":[0,0,0,4.6479,4.648,4.6503,4.6503,4.6555,4.6555,0,0,0,0,0,0,0,0,0,0,0,4.6486,4.6487,4.6479,4.648,4.6503,4.6503,4.6554,4.6555,0,0,0,0,0,0,0,0,0,0,0,4.6486,4.6486,4.6487,4.6481,4.6503,4.6503,4.6554,4.6529,0,0,0,0,0,0,0,0,0,0,4.6503,4.6522,4.6486,4.6488,4.6481,4.6503,4.6503,4.6528,4.6531,4.6553,0,4.6577,0,4.6567,4.656,4.656,0,0,0,4.647,4.6519,4.6514,4.6488,4.6481,4.6503,4.649,4.6529,4.6533,4.6558,4.6578,4.6579,4.6568,4.656,4.6561,4.6724,4.6725,0,0,4.6469,4.6497,4.6511,4.6517,4.6514,4.649,4.6491,4.6531,4.6554,4.6578,4.658,4.6569,4.6561,4.6561,4.6723,4.6724,0,0,0,4.6472,4.6497,4.6489,4.6515,4.6518,4.649,4.6492,4.6553,4.6548,4.658,4.6569,4.6561,4.6562,4.6721,4.6723,4.6809,0,0,0,4.6471,4.6498,4.6489,4.6507,4.6517,4.6535,4.6514,4.6545,4.6549,4.6569,4.6561,4.6563,4.672,4.6722,4.6804,4.6845,0,0,0,4.648,4.6499,4.6507,4.6508,4.6519,4.6534,4.6531,4.6545,4.6543,4.656,4.6563,4.6719,4.6722,4.6799,4.6837,4.6895,0,0,0,4.6497,4.6584,4.6509,4.6602,4.6519,4.6588,4.6531,4.6581,4.6606,4.6562,4.672,4.6723,4.6798,4.6832,4.689,4.6947,4.6974,0,0,4.6623,4.6601,4.6653,4.6586,4.6675,4.6582,4.6684,4.6681,4.6658,4.6703,4.6707,4.6806,4.6837,4.6894,4.7118,4.714,0,0,0,4.6702,4.674,4.6758,4.6783,4.6783,4.6785,4.6764,4.6763,4.68,4.6687,4.6842,4.686,4.6892,4.6918,4.6936,4.6962,4.6737,4.6737,4.6736,4.6919,4.6883,4.6967,4.6935,4.6961,4.6937,4.6954,4.6949,4.6907,4.6944,4.6957,4.7097,4.7129,4.7142,4.7169,4.6986,4.6986,4.6987,4.6987,4.7097,4.7144,4.7086,4.7146,4.7109,4.7159,4.7141,4.7109,4.715,4.7085,4.7112,4.7042,4.7167,4.7189,4.6993,4.6992,4.6991,4.6991,4.699,4.7233,4.725,4.7247,4.7279,4.7308,4.7273,4.7315,4.728,4.7247,4.7274,4.7282,4.7281,4.7273,4.7281,4.7281,4.7282,4.7282,4.7282,4.7283,4.7375,4.7369,4.7408,4.7415,4.7426,4.7437,4.7415,4.7425,4.7427,4.7398,4.7398,4.7351,4.7187,4.7145,4.729,4.7289,4.7288,4.7287,4.7287,4.7566,4.7517,4.7578,4.7589,4.7594,4.7624,4.7579,4.7603,4.7606,4.7628,4.7576,4.7461,4.7435,4.742,4.7385,4.7584,4.7584,4.7584,4.7584,4.7679,4.7663,4.7717,4.7737,4.7752,4.7718,4.7787,4.7771,4.7747,4.7747,4.7713,4.7665,4.7652,4.7634,4.7614,4.7581,4.7825,4.7825,4.7826,4.7794,4.7778,4.7843,4.7818,4.7819,4.7821,4.7885,4.791,4.7873,4.7835,4.7745,4.7735,4.7657,4.7633,4.7591,4.7562,4.75,0,0]}]]